Other Public Products
Issued by NWS Charleston, SC

Home | Current Version | Previous Version | Text Only | Print | Product List | Glossary On
Versions: 1 2 3 4 5 6 7 8 9 10 11 12 13 14 15 16 17 18 19 20 21 22 23 24 25 26 27 28 29 30 31 32 33 34 35 36 37 38 39 40 41 42 43 44 45 46 47 48 49 50
960
FPUS82 KCHS 230327
OPUCHS

TEST...KCHS/KSAV Gateway Observations...TEST
National Weather Service Charleston SC
1000 PM EST SUN JAN 22 2017

NOTE: "fair" indicates few or no clouds below 12,000 feet with no
significant weather and/or obstructions to visibility.

SCZ050-WAZ558-NCZ071-TXZ119-213-PAZ071-DCZ001-FLZ074-172-MI076-
NYZ176-178-MAZ016-IL014-TNZ027-NJZ106-GAZ044-MD014-230400-
...Gateway Observations for Charleston International...

CITY           SKY/WX    TMP DP  RH WIND       PRES   REMARKS
Chas Airport   CLOUDY    64  62  93 SE16      29.33S
Seattle        MOCLDY    43  36  76 E8        29.57S
Charlotte      CLOUDY    57  54  89 E23G29    29.34F
Dallas DFW     CLEAR     56  38  50 NW14      29.89R
Dallas Love    CLEAR     56  36  47 NW13      29.89R
Philladelphia  CLOUDY    47  44  90 NE13G24   29.72S
Wash National  CLOUDY    50  49  96 NE14      29.63R FOG
Baltimore      LGT RAIN  48  48 100 NE12      29.65R FOG
Miami          PTCLDY    80  69  69 S16G24    29.69F
Detroit        FOG       47  47 100 NE3       29.65R VSB 1/2
Newark         CLOUDY    49  41  74 NE17G24   29.79R
Laguardia      CLOUDY    49  40  71 NE18      29.79R
J F K          CLOUDY    48  44  86 NE18G31   29.79R
Boston Logan   CLOUDY    41  37  86 NE18      29.96S
Ft. Lauderdale PTCLDY    78  69  73 SW16G24   29.67S
Chicago O`Hare CLOUDY    40  38  93 NE5       29.67R WCI  37
Chicago Midway CLOUDY    42  36  79 NE12      29.66S
Houston Bush   CLEAR     62  39  42 NW15G25   29.84R
Houston Hobby  CLEAR     63  39  41 NW15G26   29.84R
Nashville      CLOUDY    58  52  80 N17G24    29.29R
Atlanta        DRIZZLE   51  49  92 SW10      29.27R

$$

GAZ044-118-TXZ119-213-NCZ071-DCZ001-MDZ014-506-PAZ021-071-NJZ106-
NYZ176-178-MAZ106-OHZ011-021-055-MIZ076-KYZ091-ILZ014-INZ047-
MNZ060-230400-
...Gateway Observations for Savannah International...

CITY           SKY/WX    TMP DP  RH WIND       PRES   REMARKS
Savannah Arpt  PTCLDY    64  60  87 SW10      29.34R
Atlanta        DRIZZLE   51  49  92 SW10      29.27R
Charlotte      CLOUDY    57  54  89 E23G29    29.34F
Dallas DFW     CLEAR     56  38  50 NW14      29.89R
Houston Bush   CLEAR     62  39  42 NW15G25   29.84R
Wash National  CLOUDY    50  49  96 NE14      29.63R FOG
Wash Dulles    CLOUDY    50  48  93 NE9       29.62S FOG
Baltimore      LGT RAIN  48  48 100 NE12      29.65R FOG
Philadelphia   CLOUDY    47  44  90 NE13G24   29.72S
Newark         CLOUDY    49  41  74 NE17G24   29.79R
Laguardia      CLOUDY    49  40  71 NE18      29.79R
J F K          CLOUDY    48  44  86 NE18G31   29.79R
Boston         CLOUDY    41  37  86 NE18      29.96S
Pittsburg      CLOUDY    54  47  77 E8        29.53F
Akron          CLOUDY    54  47  77 NE9       29.55S
Cleveland      CLOUDY    43  38  82 N8        29.60S
Cincinnati     CLOUDY    57  49  74 NE13      29.43S
Columbus         N/A     54  48  79 NE8       29.47S
Detroit        FOG       47  47 100 NE3       29.65R VSB 1/2
Chicago O`Hare CLOUDY    40  38  93 NE5       29.67R WCI  37
Minneapolis    CLOUDY    36  33  89 W6        29.78R WCI  31
Indianapolis   MOCLDY    53  49  86 N16       29.52F

$$




USA.gov is the U.S. government's official web portal to all federal, state and local government web resources and services.